When you browse on this site, cookies collect data to enhance your experience and personalize the content and advertising you see.
Visit our Privacy Policy to learn more. By continuing to use the site, you agree to this use of cookies and data.
  • In Czech Republic
  • List of Countries
  • For 7 days
  • Water Temperature
  • Satellite Maps
  • Weather Map
  • Weather Widgets
  • user-avatar
    Login

    Hourly Weather Kalgoorlie

    Today, 21 March, Thursday

    Time Temperature Precipitation Wind Pressure Humidity
    00:00 +33°C° 0 mm 7 mps 727 mmHg 32%
    01:00 +32°C° 0 mm 7 mps 727 mmHg 33%
    02:00 +30°C° 0 mm 7 mps 727 mmHg 34%
    03:00 +29°C° 0 mm 7 mps 727 mmHg 38%
    04:00 +28°C° 0 mm 7 mps 727 mmHg 42%
    05:00 +28°C° 0 mm 7 mps 727 mmHg 46%
    06:00 +28°C° 0.1 mm 7 mps 728 mmHg 46%
    07:00 +28°C° 0.1 mm 8 mps 728 mmHg 46%
    08:00 +29°C° 0.1 mm 8 mps 728 mmHg 46%
    09:00 +30°C° 0.3 mm 7 mps 728 mmHg 43%
    10:00 +32°C° 0.3 mm 7 mps 728 mmHg 41%
    11:00 +34°C° 0.3 mm 7 mps 728 mmHg 38%
    12:00 +32°C° 0.2 mm 6 mps 728 mmHg 45%
    13:00 +29°C° 0.2 mm 6 mps 727 mmHg 52%
    14:00 +28°C° 0.2 mm 5 mps 727 mmHg 59%
    15:00 +28°C° 0.1 mm 5 mps 727 mmHg 55%
    16:00 +29°C° 0.1 mm 6 mps 727 mmHg 52%
    17:00 +29°C° 0.1 mm 6 mps 727 mmHg 48%
    18:00 +28°C° 1.7 mm 5 mps 727 mmHg 54%
    19:00 +27°C° 1.7 mm 4 mps 727 mmHg 61%
    20:00 +26°C° 1.7 mm 3 mps 727 mmHg 67%
    21:00 +26°C° 0 mm 3 mps 727 mmHg 67%
    22:00 +26°C° 0 mm 4 mps 727 mmHg 66%
    23:00 +26°C° 0 mm 5 mps 727 mmHg 66%

    Tomorrow, 22 March, Friday

    Time Temperature Precipitation Wind Pressure Humidity
    00:00 +26°C° 0 mm 4 mps 727 mmHg 67%
    01:00 +26°C° 0 mm 4 mps 726 mmHg 68%
    02:00 +25°C° 0 mm 3 mps 726 mmHg 70%
    03:00 +25°C° 0 mm 3 mps 726 mmHg 70%
    04:00 +25°C° 0 mm 3 mps 726 mmHg 71%
    05:00 +24°C° 0 mm 3 mps 726 mmHg 71%
    06:00 +25°C° 0 mm 3 mps 726 mmHg 66%
    07:00 +26°C° 0 mm 3 mps 726 mmHg 61%
    08:00 +27°C° 0 mm 3 mps 726 mmHg 56%
    09:00 +29°C° 0 mm 3 mps 726 mmHg 49%
    10:00 +31°C° 0 mm 3 mps 726 mmHg 42%
    11:00 +33°C° 0 mm 3 mps 726 mmHg 35%
    12:00 +34°C° 0 mm 3 mps 725 mmHg 32%
    13:00 +36°C° 0 mm 4 mps 725 mmHg 30%
    14:00 +37°C° 0 mm 4 mps 724 mmHg 27%
    15:00 +35°C° 0.3 mm 4 mps 724 mmHg 32%
    16:00 +34°C° 0.3 mm 5 mps 724 mmHg 36%
    17:00 +33°C° 0.3 mm 5 mps 724 mmHg 40%
    18:00 +30°C° 2.7 mm 5 mps 725 mmHg 49%
    19:00 +29°C° 2.7 mm 6 mps 726 mmHg 58%
    20:00 +27°C° 2.7 mm 6 mps 726 mmHg 66%
    21:00 +26°C° 0.7 mm 7 mps 727 mmHg 69%
    22:00 +23°C° 0.7 mm 8 mps 728 mmHg 71%
    23:00 +22°C° 0.7 mm 9 mps 728 mmHg 74%

    Day after tomorrow, 23 March, Saturday

    Time Temperature Precipitation Wind Pressure Humidity
    00:00 +22°C° 1 mm 8 mps 728 mmHg 74%
    01:00 +21°C° 1 mm 8 mps 728 mmHg 74%
    02:00 +21°C° 1 mm 8 mps 728 mmHg 74%
    03:00 +20°C° 0 mm 8 mps 728 mmHg 74%
    04:00 +19°C° 0 mm 9 mps 728 mmHg 75%
    05:00 +18°C° 0 mm 10 mps 728 mmHg 76%
    06:00 +17°C° 0 mm 9 mps 729 mmHg 74%
    07:00 +17°C° 0 mm 9 mps 729 mmHg 73%
    08:00 +16°C° 0 mm 9 mps 729 mmHg 71%
    09:00 +18°C° 0 mm 8 mps 730 mmHg 65%
    10:00 +20°C° 0 mm 7 mps 730 mmHg 59%
    11:00 +22°C° 0 mm 7 mps 730 mmHg 53%
    12:00 +23°C° 0 mm 6 mps 730 mmHg 49%
    13:00 +25°C° 0 mm 5 mps 729 mmHg 45%
    14:00 +26°C° 0 mm 5 mps 728 mmHg 42%
    15:00 +26°C° 0 mm 4 mps 728 mmHg 41%
    16:00 +26°C° 0 mm 4 mps 728 mmHg 40%
    17:00 +26°C° 0 mm 4 mps 728 mmHg 39%
    18:00 +26°C° 0 mm 4 mps 728 mmHg 41%
    19:00 +25°C° 0 mm 4 mps 728 mmHg 42%
    20:00 +23°C° 0 mm 4 mps 729 mmHg 43%
    21:00 +22°C° 0 mm 5 mps 729 mmHg 45%
    22:00 +21°C° 0 mm 5 mps 729 mmHg 47%
    23:00 +21°C° 0 mm 5 mps 729 mmHg 50%

    24 March, Sunday

    Time Temperature Precipitation Wind Pressure Humidity
    00:00 +20°C° 0 mm 5 mps 729 mmHg 54%
    01:00 +19°C° 0 mm 5 mps 728 mmHg 58%
    02:00 +19°C° 0 mm 5 mps 728 mmHg 62%
    03:00 +18°C° 0 mm 4 mps 728 mmHg 64%
    04:00 +17°C° 0 mm 4 mps 728 mmHg 67%
    05:00 +17°C° 0 mm 3 mps 728 mmHg 69%
    06:00 +17°C° 0 mm 3 mps 728 mmHg 68%
    07:00 +17°C° 0 mm 3 mps 729 mmHg 66%
    08:00 +18°C° 0 mm 2 mps 729 mmHg 65%
    09:00 +19°C° 0 mm 3 mps 729 mmHg 58%
    10:00 +21°C° 0 mm 3 mps 729 mmHg 51%
    11:00 +22°C° 0 mm 4 mps 729 mmHg 44%
    12:00 +25°C° 0 mm 5 mps 729 mmHg 38%
    13:00 +26°C° 0 mm 5 mps 728 mmHg 32%
    14:00 +27°C° 0 mm 6 mps 728 mmHg 26%
    15:00 +27°C° 0 mm 6 mps 728 mmHg 27%
    16:00 +26°C° 0 mm 6 mps 728 mmHg 27%
    17:00 +26°C° 0 mm 6 mps 728 mmHg 28%
    18:00 +24°C° 0 mm 7 mps 729 mmHg 34%
    19:00 +22°C° 0 mm 8 mps 730 mmHg 41%
    20:00 +21°C° 0 mm 9 mps 730 mmHg 48%
    21:00 +19°C° 0 mm 9 mps 731 mmHg 52%
    22:00 +17°C° 0 mm 9 mps 731 mmHg 56%
    23:00 +16°C° 0 mm 9 mps 731 mmHg 60%

    25 March, Monday

    Time Temperature Precipitation Wind Pressure Humidity
    00:00 +15°C° 0 mm 8 mps 731 mmHg 62%
    01:00 +13°C° 0 mm 8 mps 731 mmHg 63%
    02:00 +12°C° 0 mm 8 mps 731 mmHg 65%
    03:00 +12°C° 0 mm 8 mps 732 mmHg 65%
    04:00 +11°C° 0 mm 8 mps 732 mmHg 66%
    05:00 +11°C° 0 mm 8 mps 733 mmHg 67%
    06:00 +11°C° 0 mm 8 mps 733 mmHg 66%
    07:00 +11°C° 0 mm 8 mps 734 mmHg 64%
    08:00 +12°C° 0 mm 7 mps 734 mmHg 63%
    09:00 +15°C° 0 mm 8 mps 734 mmHg 55%
    10:00 +17°C° 0 mm 8 mps 734 mmHg 47%
    11:00 +18°C° 0 mm 8 mps 734 mmHg 39%
    12:00 +21°C° 0 mm 8 mps 733 mmHg 36%
    13:00 +22°C° 0 mm 8 mps 733 mmHg 32%
    14:00 +24°C° 0 mm 8 mps 732 mmHg 28%
    15:00 +24°C° 0 mm 8 mps 732 mmHg 29%
    16:00 +23°C° 0 mm 8 mps 733 mmHg 31%
    17:00 +23°C° 0 mm 8 mps 733 mmHg 32%
    18:00 +22°C° 0 mm 8 mps 733 mmHg 36%
    19:00 +21°C° 0 mm 8 mps 734 mmHg 41%
    20:00 +20°C° 0 mm 8 mps 734 mmHg 45%
    21:00 +18°C° 0 mm 8 mps 734 mmHg 49%
    22:00 +17°C° 0 mm 8 mps 734 mmHg 52%
    23:00 +16°C° 0 mm 8 mps 735 mmHg 56%

    26 March, Tuesday

    Time Temperature Precipitation Wind Pressure Humidity
    00:00 +15°C° 0 mm 8 mps 734 mmHg 59%
    01:00 +13°C° 0 mm 8 mps 734 mmHg 63%
    02:00 +13°C° 0 mm 8 mps 734 mmHg 67%
    03:00 +12°C° 0 mm 8 mps 735 mmHg 69%
    04:00 +12°C° 0 mm 8 mps 735 mmHg 70%
    05:00 +12°C° 0 mm 8 mps 735 mmHg 72%
    06:00 +12°C° 0 mm 8 mps 736 mmHg 69%
    07:00 +13°C° 0 mm 8 mps 736 mmHg 67%
    08:00 +13°C° 0 mm 8 mps 736 mmHg 65%
    09:00 +16°C° 0 mm 8 mps 736 mmHg 57%
    10:00 +18°C° 0 mm 8 mps 736 mmHg 50%
    11:00 +21°C° 0 mm 8 mps 735 mmHg 43%
    12:00 +22°C° 0 mm 8 mps 735 mmHg 39%
    13:00 +24°C° 0 mm 8 mps 734 mmHg 35%
    14:00 +26°C° 0 mm 8 mps 733 mmHg 31%
    15:00 +26°C° 0 mm 8 mps 733 mmHg 31%
    16:00 +26°C° 0 mm 8 mps 733 mmHg 32%
    17:00 +26°C° 0 mm 8 mps 733 mmHg 32%
    18:00 +24°C° 0 mm 8 mps 734 mmHg 34%
    19:00 +23°C° 0 mm 8 mps 734 mmHg 36%
    20:00 +22°C° 0 mm 7 mps 734 mmHg 38%
    21:00 +21°C° 0 mm 7 mps 734 mmHg 40%
    22:00 +20°C° 0 mm 7 mps 734 mmHg 42%
    23:00 +20°C° 0 mm 7 mps 734 mmHg 44%
    Show more